This demonstration page uses our WeatherBlox Daily Observations layout. Learn more.

Left ArrowRight Arrow

Hourly Observations for July 20, 2015

Temp ( °F °C ) Dew Point ( °F °C ) Humidity (%) Winds ( mph kmh ) Pressure ( in mb ) Visibility ( mi km ) Precip ( " mm )
12:53 am 00:53 Clear 86 30 61 16.1 43 43 SSE 13 20 29.82 1010 10 16 0.00 0.00
1:53 am 01:53 Clear 84 28.9 63 17.2 49 49 SSE 13 20 29.82 1010 10 16 0.00 0.00
2:53 am 02:53 Clear 83 28.3 64 17.8 53 53 SSE 13 20 29.81 1009 10 16 0.00 0.00
3:53 am 03:53 Clear 82 27.8 64 17.8 55 55 SE 12 19 29.80 1009 10 16 0.00 0.00
4:53 am 04:53 Clear 80 26.7 64 17.8 58 58 SE 8 13 29.80 1009 10 16 0.00 0.00
5:53 am 05:53 Clear 78 25.6 63 17.2 60 60 SSE 9 15 29.81 1009 10 16 0.00 0.00
6:53 am 06:53 Clear 77 25 63 17.2 62 62 SSE 9 15 29.84 1010 10 16 0.00 0.00
7:53 am 07:53 Sunny 79 26.1 63 17.2 58 58 SE 12 19 29.83 1010 10 16 0.00 0.00
8:53 am 08:53 Sunny 82 27.8 63 17.2 53 53 SSE 10 17 29.83 1010 10 16 0.00 0.00
9:53 am 09:53 Sunny 87 30.6 62 16.7 43 43 SSW 8 13 29.83 1010 10 16 0.00 0.00
10:53 am 10:53 Sunny 91 32.8 61 16.1 37 37 Calm 29.82 1010 10 16 0.00 0.00
11:53 am 11:53 Sunny 95 35 61 16.1 32 32 ENE 6 9 29.82 1010 10 16 0.00 0.00
12:53 pm 12:53 Sunny 99 37.2 60 15.6 28 28 VRB 3 6 29.80 1009 10 16 0.00 0.00
1:53 pm 13:53 Sunny 101 38.3 57 13.9 23 23 Calm 29.78 1008 10 16 0.00 0.00
2:53 pm 14:53 Mostly Sunny 103 39.4 53 11.7 19 19 VRB 6 9 29.74 1007 10 16 0.00 0.00
3:53 pm 15:53 Partly Cloudy 105 40.6 55 12.8 19 19 E 13 20 29.72 1006 10 16 0.00 0.00
4:43 pm 16:43 Partly Cloudy with Nearby Thunderstorms 100 37.8 52 11.1 20 20 VRB 5 7 29.59 1002 10 16 0.00 0.00
4:53 pm 16:53 Mostly Cloudy 97 36.1 57 13.9 26 26 WNW 24 39 29.73 1007 10 16 0.00 0.00
5:10 pm 17:10 Mostly Cloudy 93 34 59 15 32 32 WNW 22 35 29.62 1003 10 16 0.00 0.00
5:53 pm 17:53 Sunny 94 34.4 60 15.6 32 32 WNW 14 22 29.73 1007 10 16 0.00 0.00
6:53 pm 18:53 Sunny 89 31.7 59 15 36 36 W 23 37 29.74 1007 10 16 0.00 0.00
7:53 pm 19:53 Sunny 87 30.6 58 14.4 37 37 W 14 22 29.74 1007 10 16 0.00 0.00
8:53 pm 20:53 Sunny 88 31.1 58 14.4 36 36 E 7 11 29.75 1008 10 16 0.00 0.00
9:53 pm 21:53 Clear 86 30 58 14.4 39 39 S 7 11 29.76 1008 10 16 0.00 0.00
10:53 pm 22:53 Clear 86 30 58 14.4 39 39 SSW 10 17 29.78 1008 10 16 0.00 0.00
11:53 pm 23:53 Clear 84 28.9 59 15 43 43 Calm 29.78 1009 10 16 0.00 0.00

Powered by AerisWeather